sat.trackr.live / text

‹ back to catalog

SHIJIAN-30A (SJ-30A)

NORAD 66545 · 2025-266A

PAYLOAD ACTIVE UNKNOWN

§ Identity

Operator
Country
PRC
Launch date
2025-11-19
Launch site
JSC
Launch vehicle
Mass (kg)
RCS (m²)

External: N2YO · Heavens-Above · Gunter

§ Orbital elements

Epoch: 2026-09-20T23:38:14.895168Z

Period
95.01 min
Inclination
51.7967°
Eccentricity
0.0006490
Mean motion
15.15646354 rev/d
Perigee alt
514.5 km
Apogee alt
523.5 km
Semi-major
6,897.2 km
B*
2.3240e-4
RAAN
90.6101°
Arg perigee
209.0625°
Mean anomaly
150.9991°
Rev number
4,638

§ Raw data

SHIJIAN-30A (SJ-30A)1 66545U 25266A   26263.98489462  .00004169  00000+0  23240-3 0  99992 66545  51.7967  90.6101 0006490 209.0625 150.9991 15.15646354 46388

JSON: /api/v1/satellites/66545 · /tle

For live sub-satellite position, see the globe view (requires WebGL).

§ Visibility from observer

Set your observer location to see the next 7 days of passes ≥ 10°. The values pass through the URL so the page stays shareable.

No JS? Fill the form by hand. The geolocation button needs JavaScript.

§ Radio — SatNOGS DB

ModeDescriptionDownlinkUplink
BPSK S-band telemetry 2.274 GHz

1 transmitter · refreshed weekly from db.satnogs.org